Weather History for Northeast Philadelphia, PA

Change the Weather History Date:

Thursday, September 22, 2011

  Actual Average Record
Temperature  
Mean Temperature 74 °F -  
Max Temperature 81 °F 72 °F 89 °F (2010)
Min Temperature 68 °F 53 °F 41 °F (1997)
Cooling Degree Days 10    
Growing Degree Days 24 (Base 50)    
Moisture  
Dew Point 68 °F    
Average Humidity 86    
Maximum Humidity 100    
Minimum Humidity 64    
Precipitation  
Precipitation 0.00 in - - ()
Sea Level Pressure  
Sea Level Pressure 30.12 in    
Wind  
Wind Speed 4 mph (SSW)    
Max Wind Speed 9 mph    
Max Gust Speed -    
Visibility 6 miles    
Events Fog , Rain    
Averages and records for this station are not official NWS values.
T = Trace of Precipitation, MM = Missing Value Source: NWS Daily Summary

Daily Weather History Graph

Daily Weather History Graph

Search for Another Location

Airport:

Trip Planner

Search our weather history database for the weather conditions in past years. The results will help you decide how hot, cold, wet, or windy it might be!

Date:

Astronomy

Sep. 22, 2011 Rise Set
Actual Time 6:47 AM EDT 6:57 PM EDT
Civil Twilight 6:20 AM EDT 7:24 PM EDT
Nautical Twilight 5:48 AM EDT 7:56 PM EDT
Astronomical Twilight 5:16 AM EDT 8:28 PM EDT
Moon 1:05 AM EDT (9/22) 3:48 PM EDT (9/22)
Length of Visible Light 13h 04m
Length of Day
12h 10m
Waning Crescent, 29% of the Moon is Illuminated
Sep 22
Waning Crescent
Sep 27
New
Oct 3
First Quarter
Oct 11
Full
Oct 19
Last Quarter

Hourly Weather History & Observations

Time (EDT) Temp. Heat Index Dew Point Humidity Pressure Visibility Wind Dir Wind Speed Gust Speed Precip Events Conditions
12:54 AM 68.0 °F - 66.9 °F 96% 30.14 in 4.0 mi East 5.8 mph - 0.00 in   Overcast
1:08 AM 68.0 °F - 66.2 °F 94% 30.13 in 1.8 mi East 5.8 mph - N/A   Overcast
1:22 AM 68.0 °F - 66.2 °F 94% 30.14 in 1.2 mi ESE 3.5 mph - N/A   Overcast
1:37 AM 68.0 °F - 68.0 °F 100% 30.13 in 0.8 mi ESE 5.8 mph - N/A   Overcast
1:54 AM 68.0 °F - 68.0 °F 100% 30.13 in 0.5 mi ESE 4.6 mph - 0.00 in Fog , Rain Light Rain
4:09 AM 69.8 °F - 68.0 °F 94% 30.10 in 3.0 mi Calm Calm - N/A   Overcast
4:32 AM 69.8 °F - 68.0 °F 94% 30.10 in 6.0 mi Calm Calm - N/A   Overcast
5:20 AM 69.8 °F - 68.0 °F 94% 30.10 in 2.5 mi Calm Calm - N/A   Overcast
6:01 AM 69.8 °F - 68.0 °F 94% 30.10 in 2.5 mi Calm Calm - N/A   Overcast
6:09 AM 69.8 °F - 68.0 °F 94% 30.10 in 4.0 mi SSW 3.5 mph - N/A   Overcast
6:22 AM 69.8 °F - 68.0 °F 94% 30.11 in 6.0 mi SSW 3.5 mph - N/A   Overcast
6:54 AM 70.0 °F - 69.1 °F 97% 30.12 in 6.0 mi Calm Calm - N/A   Overcast
7:54 AM 70.0 °F - 69.1 °F 97% 30.13 in 4.0 mi Calm Calm - N/A   Overcast
8:11 AM 69.8 °F - 69.8 °F 100% 30.13 in 5.0 mi Calm Calm - N/A   Overcast
8:41 AM 71.6 °F - 69.8 °F 94% 30.12 in 6.0 mi Calm Calm - N/A   Mostly Cloudy
10:03 AM 71.6 °F - 69.8 °F 94% 30.14 in 6.0 mi SW 4.6 mph - N/A   Overcast
11:52 AM 75.2 °F - 68.0 °F 78% 30.12 in 10.0 mi SW 4.6 mph - N/A   Scattered Clouds
12:07 PM 78.8 °F - 68.0 °F 69% 30.12 in 10.0 mi WSW 5.8 mph - N/A   Mostly Cloudy
1:10 PM 78.8 °F - 68.0 °F 69% 30.12 in 10.0 mi SSW 8.1 mph - N/A   Mostly Cloudy
2:54 PM 80.1 °F 82.3 °F 66.9 °F 64% 30.10 in 10.0 mi SW 8.1 mph - N/A   Mostly Cloudy
3:54 PM 78.8 °F - 66.2 °F 65% 30.09 in 10.0 mi SW 6.9 mph - N/A   Clear
4:54 PM 81.0 °F 83.8 °F 68.0 °F 65% 30.09 in 10.0 mi WSW 9.2 mph - N/A   Scattered Clouds
5:54 PM 78.1 °F - 66.9 °F 68% 30.09 in 10.0 mi Variable 4.6 mph - N/A   Clear
6:54 PM 77.0 °F - 68.0 °F 74% 30.11 in 10.0 mi Calm Calm - N/A   Mostly Cloudy
7:54 PM 75.9 °F - 68.0 °F 76% 30.12 in 10.0 mi SW 3.5 mph - N/A   Clear
8:54 PM 75.0 °F - 68.0 °F 79% 30.12 in 10.0 mi SSW 3.5 mph - N/A   Clear
9:54 PM 73.9 °F - 69.1 °F 85% 30.12 in 10.0 mi Calm Calm - N/A   Partly Cloudy